x

Tanner Bank - 121nm West Of San Diego, Ca (46047) Wave Buoy

2:50 - Wed 22nd Feb 2017 All times are PST. -8 hours from GMT.

  • Sig Wave height 9.8ft
  • Swell Direction
  • Peak Period 11s
  • Average Period 9s
  • Wind
    16mph, 20mph gusts
  • Sea Temp 60°f
  • Luft Temp 58°f
  • Sea Pressure 1022.2mb
  • Tanner Bank - 121nm West Of San Diego, Ca
  • Tanner Bank - 121nm West Of San Diego, Ca

More Historic Weather Station data

Upgrade to MSW Pro to gain access to the past 30 days of data for over 8000 Wavebouys and Weather Stations around the globe.

Join Pro

Comparision Forecast

View Surf forecast
   
Mi 02/22 2:50 10ft 11s 9s 16 20 mph 1022.2mb 60f 58f
1:50 10ft 13s 9s 13 18 mph 1022.7mb 60f 58f
12:50 10ft 12s 9s 13 18 mph 1023.2mb 60f 59f
Di 02/21 11:50 9ft 11s 9s 16 18 mph 1023.7mb 60f 59f
10:50 10ft 12s 9s 13 18 mph 1024.2mb 60f 58f
9:50 10ft 12s 10s 11 13 mph 1024.2mb 60f 58f
8:50 10ft 12s 10s 7 9 mph 1024.2mb 60f 58f
7:50 9.5ft 12s 10s 9 13 mph 1023.9mb 60f 58f
6:50 8.5ft 13s 9s 9 11 mph 1023.8mb 60f 58f
5:50 10ft 11s 10s 9 11 mph 1023.8mb 60f 59f
4:50 9ft 13s 10s 9 13 mph 1023.9mb 60f 60f
3:50 8.5ft 13s 10s 2 4 mph 1023.9mb 60f 61f
2:50 9ft 13s 10s 9 11 mph 1024.4mb 61f 61f
1:50 8.5ft 13s 10s 7 11 mph 1024.6mb 61f 61f
12:50 8ft 12s 10s 4 7 mph 1025.6mb 60f 61f
11:50 9ft 13s 10s 4 7 mph 1026.4mb 60f 60f
10:50 7ft 14s 9s 7 9 mph 1027.2mb 60f 60f
9:50 8.5ft 14s 10s 7
mph
1026.7mb 59f 60f
8:50 9ft 14s 10s 7 9 mph 1026.5mb 59f 59f
7:50 9ft 15s 9s 7 9 mph 1026.1mb 59f 59f
6:50 8ft 14s 9s 9 11 mph 1025.6mb 59f 59f
5:50 8.5ft 13s 9s 7
mph
1025.3mb 59f 59f
4:50 9ft 14s 9s 7 9 mph 1025mb 59f 59f
3:50 9.5ft 14s 9s 7 9 mph 1025mb 59f 59f
2:50 9ft 15s 10s 7 9 mph 1025.4mb 59f 59f
1:50 10ft 16s 10s 7 9 mph 1026mb 59f 59f
12:50 10ft 15s 10s 9 11 mph 1026mb 59f 59f
Mo 02/20 11:50 10.5ft 15s 11s 7 9 mph 1026.1mb 59f 60f
10:50 10ft 16s 10s 7 9 mph 1026mb 59f 60f
9:50 11ft 15s 11s 7 9 mph 1025.9mb 59f 60f
8:50 11ft 15s 11s 7 9 mph 1025.7mb 59f 60f
7:50 10ft 16s 11s 7 9 mph 1025.2mb 59f 60f
6:50 10ft 16s 10s 4 7 mph 1024.7mb 60f 60f
5:50 9ft 16s 10s 4
mph
1024.3mb 60f 60f
4:50 10ft 16s 10s 4
mph
1024.2mb 60f 60f
3:50 7.5ft 11s 9s 7
mph
1023.4mb 60f 60f
2:50 9ft 17s 10s 11 13 mph 1022.8mb 60f 60f
1:50 7.5ft 12s 9s 13 16 mph 1022.5mb 60f 60f
12:50 8ft 17s 9s 11 16 mph 1023.3mb 60f 60f
11:50 7.5ft 17s 9s 11 13 mph 1023.7mb 60f 59f
10:50 8ft 11s 9s 7 9 mph 1024.1mb 59f 59f
9:50 7.5ft 12s 8s 7 9 mph 1024mb 59f 59f
8:50 7ft 12s 8s 7 9 mph 1023.5mb 59f 59f
7:50 7.5ft 13s 8s 7 9 mph 1022.7mb 59f 58f
6:50 8ft 11s 8s 9 11 mph 1022mb 59f 59f
5:50 8.5ft 12s 8s 9 11 mph 1021.5mb 59f 59f
4:50 7.5ft 12s 8s 9 16 mph 1020.9mb 59f 58f
3:50 7ft 11s 7s 11 13 mph 1020.5mb 59f 58f
2:50 7.5ft 12s 8s 11 13 mph 1020.3mb 59f 58f
1:50 8ft 12s 8s 11 16 mph 1020.6mb 59f 58f
12:50 7.5ft 12s 8s 13 16 mph 1020.5mb 59f 58f
So 02/19 11:50 8ft 11s 8s 13 16 mph 1020.5mb 59f 57f
10:50 8ft 11s 9s 11 13 mph 1020.5mb 59f 57f
9:50 8ft 11s 9s 9 13 mph 1020.4mb 59f 58f
8:50 8ft 12s 9s 9 18 mph 1019.9mb 59f 58f
7:50 8.5ft 12s 9s 7 9 mph 1019.1mb 59f 58f
6:50 9ft 11s 9s 11 13 mph 1018.2mb 59f 58f
5:50 10ft 13s 9s 9 11 mph 1017.3mb 59f 58f
4:50 10ft 12s 8s 11 13 mph 1016.8mb 59f 58f
3:50 10ft 11s 8s 9 11 mph 1016.7mb 59f 58f
2:50 9ft 13s 8s 11 16 mph 1016.6mb 59f 58f
1:50 11ft 11s 8s 11 13 mph 1016.3mb 59f 58f
12:50 11ft 12s 8s 13 16 mph 1016.1mb 58f 57f
11:50 11ft 11s 8s 16 20 mph 1016.3mb 58f 57f
10:50 11.5ft 13s 8s 18 22 mph 1016.1mb 58f 57f
9:50 12ft 13s 8s 18 22 mph 1015.6mb 58f 57f